[[{"header":{"parameterUnit":"m.s-1","parameterCategory":1,"la1":30.2991,"la2":30.254,"lo1":-89.0895,"lo2":-89.0444,"dy":0.0017,"dx":0.0017,"nx":28,"ny":28,"refTime":"2025-01-16T03:00:00:Z","depth":0,"parameterNumber":2,"parameterNumberName":"U-component_of_WINDS"},"data":[0,0,0,0,0,0,0,0,0,0,0,0,0,0,0,0,0,0,0,0,0,0,0,0,0,0,0,0,0,0,0,0,0,0,0,0,0,0,0,0,0,0,0,0,0,0,0,0,0,0,0,0,0,0,0,0,0,0,1.9794,1.9795,0,1.9878,1.9879,1.988,1.9868,1.9866,1.9865,1.9864,1.9951,1.9954,1.9958,0,0,0,0,0,0,0,0,0,0,0,0,0,1.9623,1.9626,1.9794,1.9795,1.9796,1.9878,1.9879,1.9881,1.9868,1.9866,1.9865,1.9863,1.9949,1.9954,1.9958,0,0,0,0,0,0,0,0,0,0,0,0,0,1.9701,1.9627,1.9794,1.98,1.9801,1.9878,1.9879,1.9881,1.9869,1.9866,1.9864,1.9862,1.9948,1.9953,1.9959,2.0035,0,0,1.9975,1.9978,0,0,0,0,0,0,0,0,1.9697,1.9708,1.9798,1.98,1.9801,1.986,1.9851,1.9933,1.9869,1.9843,1.9864,1.9861,1.9922,1.993,1.995,2.0039,2.0043,1.9976,1.9979,1.9981,1.9983,0,0,0,0,0,0,0,1.9692,1.9704,1.9827,1.9799,1.9801,1.9799,1.9807,1.9866,1.9894,1.9845,1.9844,1.9855,1.9923,1.9945,1.9952,2.0044,1.9976,1.998,1.9984,1.9986,2.0201,2.0203,0,0,0,0,0,0,1.9684,1.97,1.9825,1.983,1.9743,1.9803,1.9813,1.9844,1.9893,1.9898,1.9856,1.9854,1.9937,1.9946,1.9955,2.0049,1.9981,1.9986,1.999,2.0198,2.0201,2.0204,0,0,0,0,0,0,1.9681,1.9696,1.9821,1.9765,1.978,1.9809,1.9843,1.9846,1.9869,1.9901,1.9906,1.9874,1.9935,1.9948,2.0015,2.0052,1.9989,1.9994,2.0195,2.0199,2.0203,2.0236,0,0,0,0,0,0,1.9676,1.9694,1.9724,1.9765,1.9783,1.988,1.9845,1.985,1.9878,1.9875,1.9919,1.9924,1.9935,2.0007,2.0021,2.0058,1.9998,2.0192,2.0197,2.0201,2.0232,2.024,2.0247,0,0,0,0,0,1.967,1.9729,1.9725,1.974,1.982,1.9882,1.9892,1.9903,1.9881,1.9911,1.9932,1.9923,2.0045,2.0014,2.003,2.0069,2.019,2.0196,2.0201,2.0228,2.0239,2.0247,0,0,0,0,0,0,1.9691,1.9735,1.9731,1.9805,1.984,1.988,1.9918,1.9913,1.9955,1.9951,1.9962,1.9972,2.0041,2.0062,2.0027,2.0146,2.0115,2.0123,2.013,2.014,2.0148,2.0142,2.0003,0,0,0,0,0,1.9704,1.9751,1.9787,1.9849,1.9867,1.9889,1.9916,1.9922,1.9958,1.9973,1.9999,2.0035,2.0081,2.0112,2.0156,2.0234,2.0244,2.0269,2.0277,2.0283,2.0291,2.0334,2.0346,2.0222,2.0222,2.0222,0,0,1.9733,1.9762,1.9791,1.9854,1.9882,1.993,1.9902,1.9953,1.9989,1.9981,2.0047,2.0067,2.0108,2.0181,2.0215,2.0201,2.0327,2.029,2.0295,2.0299,2.0341,2.0353,2.0363,2.0226,2.0225,2.0224,0,0,1.9809,1.9835,1.9891,1.9919,1.9961,1.9976,1.9989,2.003,2.0043,2.0109,2.0104,2.0147,2.0227,2.0256,2.0282,2.037,2.0364,2.0384,2.0426,2.0468,2.0478,2.0487,2.0519,2.053,2.0391,2.0391,2.0391,0,1.9838,1.991,1.992,1.9973,2.0001,1.9995,2.0052,2.0079,2.0133,2.0153,2.0136,2.0237,2.0264,2.0345,2.0366,2.0387,2.0403,2.0379,2.0476,2.0484,2.0493,2.0524,2.0536,2.0394,2.0393,2.0393,2.0393,0,1.9945,1.9995,2.0035,2.0088,2.0121,2.0176,2.0194,2.0226,2.0228,2.0245,2.0313,2.0345,2.0397,2.0416,2.0419,2.0498,2.0487,2.0473,2.0442,2.0507,2.0536,2.0548,2.0397,2.0396,2.0395,2.0395,0,0,2.0037,2.0095,2.011,2.0134,2.018,2.0219,2.0274,2.0324,2.0352,2.039,2.0436,2.0504,2.0491,2.052,2.0526,2.0563,2.0632,2.0544,2.0545,2.056,2.0722,2.0733,2.0747,2.0628,2.063,2.0632,2.0719,0,2.0119,2.0215,2.0225,2.0311,2.0358,2.0353,2.0401,2.0435,2.0452,2.0494,2.0513,2.0561,2.054,2.0558,2.0594,2.0616,2.0665,2.061,2.0672,2.0674,2.0663,2.0762,2.0774,2.0855,2.073,2.0732,2.0734,0,2.0226,2.0268,2.0358,2.0399,2.0419,2.0461,2.0509,2.0549,2.0587,2.0597,2.063,2.0631,2.0688,2.0654,2.0733,2.0695,2.0721,2.0736,2.0739,2.0746,2.0708,2.0773,2.0881,2.0893,2.0752,2.075,2.0749,0,2.0286,2.0364,2.0428,2.0449,2.0498,2.0528,2.0549,2.0586,2.0615,2.0657,2.0676,2.0724,2.075,2.0787,2.0801,2.0775,2.088,2.0847,2.089,2.089,2.0913,2.0911,2.1027,2.0928,2.0928,2.0928,2.0928,0,2.0376,2.0432,2.0456,2.0496,2.0558,2.057,2.0632,2.0652,2.0684,2.0728,2.0727,2.0768,2.0784,2.0829,2.084,2.0904,2.0916,2.0926,2.0928,2.0926,2.0925,2.0944,2.0939,2.0931,2.093,2.093,2.0929,0,2.0453,2.0471,2.0541,2.0581,2.0593,2.0638,2.0672,2.0711,2.0727,2.0783,2.0797,2.0823,2.0875,2.0893,2.0956,2.0963,2.1038,2.1035,2.1025,2.1026,2.1068,2.1065,2.1201,2.122,2.1108,2.1109,2.111,0,2.0509,2.0552,2.0597,2.0627,2.065,2.0697,2.0727,2.074,2.0772,2.082,2.0853,2.0905,2.0947,2.103,2.1055,2.1103,2.1102,2.1147,2.1109,2.1106,2.1104,2.1101,2.1106,2.1154,2.1155,2.1156,2.1157,0,2.0609,2.0616,2.066,2.0707,2.0744,2.0782,2.0818,2.0843,2.0861,2.0897,2.095,2.0983,2.1047,2.1099,2.1149,2.1171,2.1168,2.1168,2.1181,2.118,2.1173,2.1178,2.1045,2.1165,2.1164,2.1164,2.1163,2.1163,2.0678,2.0716,2.0754,2.0803,2.0832,2.0867,2.0906,2.0927,2.0972,2.1025,2.103,2.1088,2.1125,2.1192,2.1217,2.1262,2.125,2.1268,2.1272,2.1277,2.1281,2.1165,2.1271,2.1271,2.1271,2.127,2.127,0,2.0778,2.0802,2.0847,2.0899,2.0938,2.093,2.0971,2.1004,2.1055,2.109,2.1132,2.1193,2.1243,2.1272,2.1322,2.1353,2.1353,2.1366,2.1364,2.137,2.1288,2.1273,2.1366,2.1366,2.1366,2.1366,2.1366,2.1366,2.0834,2.0899,2.0911,2.099,2.1014,2.107,2.1094,2.1126,2.1155,2.1223,2.1265,2.1283,2.1316,2.1369,2.1415,2.1422,2.1441,2.1456,2.1462,2.1385,2.1376,2.1366,2.1352,2.146,2.146,2.154,2.154,2.1541]},{"header":{"parameterUnit":"m.s-1","parameterCategory":1,"la1":30.2991,"la2":30.254,"lo1":-89.0895,"lo2":-89.0444,"dy":0.0017,"dx":0.0017,"nx":28,"ny":28,"refTime":"2025-01-16T03:00:00:Z","depth":0,"parameterNumber":3,"parameterNumberName":"V-component_of_WINDS"},"data":[0,0,0,0,0,0,0,0,0,0,0,0,0,0,0,0,0,0,0,0,0,0,0,0,0,0,0,0,0,0,0,0,0,0,0,0,0,0,0,0,0,0,0,0,0,0,0,0,0,0,0,0,0,0,0,0,0,0,0.1274,0.1275,0,0.1323,0.1323,0.1324,0.1324,0.1323,0.1323,0.1322,0.1372,0.1374,0.1376,0,0,0,0,0,0,0,0,0,0,0,0,0,0.1181,0.1183,0.1274,0.1275,0.1275,0.1323,0.1323,0.1324,0.1324,0.1323,0.1322,0.1322,0.1372,0.1374,0.1376,0,0,0,0,0,0,0,0,0,0,0,0,0,0.1225,0.1183,0.1274,0.1281,0.1282,0.1322,0.1323,0.1324,0.1324,0.1323,0.1322,0.1321,0.1371,0.1374,0.1377,0.1413,0,0,0.1385,0.1387,0,0,0,0,0,0,0,0,0.1222,0.1228,0.1279,0.1281,0.1282,0.1316,0.1309,0.1354,0.1324,0.1308,0.1322,0.1321,0.1355,0.1359,0.137,0.1416,0.1418,0.1386,0.1387,0.1389,0.139,0,0,0,0,0,0,0,0.1219,0.1226,0.1293,0.128,0.1282,0.1282,0.1287,0.1318,0.1336,0.131,0.131,0.1315,0.1355,0.1367,0.1371,0.1419,0.1386,0.1388,0.139,0.1391,0.1496,0.1497,0,0,0,0,0,0,0.1215,0.1224,0.1292,0.1295,0.1249,0.1284,0.129,0.1306,0.1336,0.1339,0.1316,0.1315,0.1363,0.1368,0.1373,0.1418,0.1389,0.1391,0.1393,0.1495,0.1496,0.1498,0,0,0,0,0,0,0.1213,0.1221,0.129,0.1259,0.1268,0.1287,0.1305,0.1308,0.132,0.1341,0.1344,0.1325,0.1362,0.1369,0.1403,0.1419,0.1393,0.1395,0.1494,0.1496,0.1497,0.1507,0,0,0,0,0,0,0.121,0.122,0.1235,0.126,0.127,0.1319,0.1306,0.1309,0.1325,0.1324,0.135,0.1353,0.1362,0.1399,0.1406,0.1423,0.1398,0.1493,0.1495,0.1496,0.1506,0.1509,0.1512,0,0,0,0,0,0.1207,0.1236,0.1235,0.1243,0.1288,0.132,0.1326,0.1335,0.1326,0.134,0.1354,0.1353,0.1416,0.1402,0.141,0.1428,0.1492,0.1494,0.1496,0.1504,0.1509,0.1512,0,0,0,0,0,0,0.1213,0.1239,0.1239,0.1277,0.1296,0.132,0.1339,0.1339,0.1362,0.136,0.1371,0.1376,0.1411,0.1423,0.1407,0.1465,0.1453,0.1457,0.1456,0.146,0.1463,0.146,0.14,0,0,0,0,0,0.1218,0.1242,0.1264,0.1296,0.1305,0.132,0.1335,0.134,0.1361,0.1369,0.1385,0.1405,0.1429,0.1445,0.1469,0.1507,0.1513,0.1523,0.1526,0.1529,0.1533,0.1553,0.1558,0.1505,0.1505,0.1505,0,0,0.123,0.1248,0.1263,0.1297,0.1313,0.1337,0.1327,0.1354,0.1372,0.1373,0.1406,0.1418,0.1442,0.1478,0.1495,0.1489,0.1548,0.1532,0.1534,0.1536,0.1556,0.1561,0.1566,0.1507,0.1507,0.1506,0,0,0.1265,0.1281,0.1308,0.1324,0.1347,0.1357,0.1364,0.1387,0.1395,0.1429,0.143,0.1451,0.1493,0.151,0.1523,0.1563,0.1563,0.157,0.1587,0.1607,0.1611,0.1615,0.1629,0.1634,0.1573,0.1573,0.1574,0,0.1277,0.1314,0.1322,0.1349,0.1364,0.1365,0.1393,0.1408,0.1438,0.1448,0.1441,0.1494,0.1509,0.1549,0.1558,0.157,0.1577,0.1568,0.161,0.1614,0.1617,0.1631,0.1636,0.1574,0.1574,0.1574,0.1574,0,0.1328,0.1354,0.1373,0.1402,0.1419,0.1446,0.1458,0.1475,0.1478,0.1488,0.1522,0.154,0.1567,0.1577,0.158,0.1617,0.1613,0.1608,0.1596,0.1623,0.1636,0.1641,0.1575,0.1575,0.1575,0.1575,0,0,0.1369,0.1401,0.1408,0.1421,0.1446,0.1466,0.1493,0.1519,0.1533,0.1553,0.1576,0.1611,0.1606,0.1622,0.1627,0.1644,0.1674,0.1637,0.1638,0.1644,0.1715,0.1719,0.1725,0.1674,0.1675,0.1675,0.1713,0,0.1407,0.1455,0.1462,0.1504,0.1528,0.1528,0.1551,0.1569,0.1579,0.1601,0.1611,0.1636,0.1628,0.1637,0.1654,0.1667,0.1689,0.1664,0.1695,0.1696,0.169,0.1732,0.1737,0.1772,0.1718,0.1719,0.172,0,0.1458,0.1479,0.1523,0.1545,0.1555,0.1576,0.16,0.162,0.164,0.1646,0.1663,0.1666,0.1693,0.1679,0.1717,0.17,0.1713,0.172,0.1722,0.1726,0.171,0.1737,0.1783,0.1788,0.1728,0.1727,0.1727,0,0.1483,0.1523,0.1554,0.1565,0.1591,0.1606,0.1617,0.1636,0.1651,0.1672,0.1682,0.1706,0.1719,0.1737,0.1746,0.1735,0.1783,0.177,0.1789,0.1789,0.18,0.1799,0.1849,0.1807,0.1807,0.1807,0.1807,0,0.1525,0.1552,0.1566,0.1586,0.1616,0.1624,0.1653,0.1664,0.1681,0.1702,0.1704,0.1724,0.1734,0.1756,0.1763,0.1793,0.1799,0.1804,0.1806,0.1804,0.1804,0.1814,0.1812,0.1809,0.1808,0.1808,0.1808,0,0.1559,0.157,0.1604,0.1625,0.1631,0.1653,0.1671,0.169,0.1699,0.1726,0.1732,0.1747,0.1772,0.1782,0.1813,0.1818,0.1853,0.1852,0.1846,0.1847,0.1865,0.1863,0.1923,0.1932,0.1884,0.1884,0.1885,0,0.1586,0.1606,0.163,0.1644,0.1656,0.1679,0.1694,0.1702,0.1718,0.1741,0.1757,0.1782,0.1803,0.1843,0.1856,0.1879,0.188,0.1899,0.1883,0.1881,0.188,0.1879,0.1881,0.1902,0.1903,0.1903,0.1904,0,0.1631,0.1635,0.1657,0.168,0.1698,0.1717,0.1735,0.1747,0.1757,0.1775,0.18,0.1816,0.1847,0.1872,0.1896,0.1907,0.1907,0.1908,0.1914,0.1913,0.1909,0.1911,0.1854,0.1907,0.1907,0.1906,0.1906,0.1906,0.1663,0.1681,0.17,0.1724,0.1738,0.1755,0.1773,0.1785,0.1806,0.1832,0.1835,0.1863,0.1881,0.1913,0.1925,0.1947,0.1942,0.195,0.1952,0.1954,0.1956,0.1904,0.1951,0.1951,0.1951,0.1951,0.1951,0,0.1708,0.172,0.1742,0.1768,0.1786,0.1784,0.1803,0.1819,0.1843,0.186,0.188,0.1909,0.1933,0.1947,0.1971,0.1985,0.1986,0.1991,0.1991,0.1993,0.1959,0.1951,0.1991,0.1991,0.1991,0.1991,0.1991,0.1991,0.1735,0.1765,0.1771,0.1809,0.1821,0.1847,0.1859,0.1874,0.1888,0.192,0.194,0.1949,0.1965,0.1989,0.2011,0.2014,0.2023,0.2029,0.2033,0.2,0.1996,0.1992,0.1985,0.2031,0.2031,0.2066,0.2066,0.2066]}]]